Location: *
(50.7153°N, 7.1287°E)
Time: 11:03:55
(UTC+00:00)

Daily predictions for brighter satellites

Satellite Brightness Start Highest point End
(mag) Time Altitude Azimuth Time Altitude Azimuth Time Altitude Azimuth
BREEZE-M DEB (TANK) 3.2 17:54:55 10° W 17:58:51 86° N 18:06:15 10° E
Cosmos 1300 Rocket 4.1 17:56:20 10° SSW 18:00:36 66° WNW 18:04:56 10° N
Cosmos 2219 3.5 17:57:11 10° S 18:02:37 45° ESE 18:08:03 10° NE
CZ-4C R/B 4.1 17:57:37 10° WNW 18:02:40 27° N 18:08:30 10° NE
Meteor 2-9 Rocket 4.3 17:57:13 10° SSW 18:02:56 86° WNW 18:08:31 10° NNE
CZ-2D R/B 3.2 17:59:52 10° SSE 18:03:37 64° ENE 18:07:25 10° N
Cosmos 1190 Rocket 4.1 17:58:24 10° NNW 18:03:42 64° ENE 18:08:55 10° SE
Cosmos 614 Rocket 4.0 17:58:38 10° NNW 18:03:52 68° ENE 18:09:02 10° SSE
NOSS 3-4 (A) 4.3 17:58:12 10° NW 18:05:04 66° SW 18:12:37 10° SSE
NOSS 3-4 (C) 4.3 17:58:18 10° NW 18:05:11 67° SW 18:12:43 10° SSE
Cosmos 2297 Rocket 2.9 18:00:38 10° SSE 18:05:30 31° ESE 18:10:24 10° NE
COSMO-SKYMED 1 2.9 18:02:55 10° N 18:07:16 71° WNW 18:11:36 10° SSW
SJ-6B 4.0 18:06:43 10° ESE 18:10:07 25° ENE 18:13:28 10° N
Nadezhda 1 Rocket 3.9 18:05:45 10° S 18:11:47 75° E 18:17:54 10° NNE
MONITOR-E 4.4 18:09:46 10° SE 18:12:26 40° ENE 18:15:06 10° N
Cosmos 1295 Rocket 4.5 18:06:55 10° N 18:13:05 67° ENE 18:19:10 10° SSE
Okean 1-7 Rocket 3.9 18:09:03 10° N 18:13:20 45° ENE 18:17:39 10° SSE
H-2A R/B 3.0 18:10:02 10° ESE 18:14:09 27° ENE 18:18:22 10° N
CZ-4 R/B 2.9 18:11:25 10° SSW 18:15:07 40° W 18:18:56 10° NNW
SL-8 R/B 3.8 18:12:22 10° W 18:17:09 69° S 18:21:34 12° E
In-Cosmos 22 4.2 18:12:32 10° N 18:17:52 58° ENE 18:23:16 10° SSE
GENESIS II 4.4 18:16:46 10° NW 18:20:53 78° SW 18:24:57 10° SE
Ariane Rocket 3.0 18:17:14 10° SSE 18:22:18 87° ENE 18:27:26 10° NNW
HJ-1C 3.3 18:20:00 10° SSE 18:23:21 67° ENE 18:26:45 10° N
Cosmos 405 Rocket 3.2 18:21:17 10° SSE 18:24:40 35° E 18:28:07 10° NNE
USA 234 3.5 18:20:26 10° ENE 18:26:59 75° NNW 18:33:32 10° WSW
ASTEX 1 3.6 18:23:09 10° NNE 18:27:55 50° E 18:32:39 10° SSE
Cosmos 389 Rocket 2.3 18:24:43 10° NNW 18:28:10 86° ENE 18:31:37 10° SSE
Cosmos 1455 Rocket 3.8 18:24:14 10° SSE 18:28:11 32° E 18:32:11 10° NNE
Cosmos 1544 Rocket 4.5 18:24:29 10° SE 18:28:15 27° E 18:32:02 10° NNE
Cosmos 1674 3.6 18:25:29 10° N 18:28:43 27° ENE 18:31:14 14° SE
DMSP B5D1-3 4.5 18:23:56 10° NNE 18:29:04 81° ESE 18:34:10 10° SSW
Lacrosse 5 rocket 1.7 18:26:00 10° SSW 18:29:21 35° SE 18:32:25 12° ENE
Cosmos 407 Rocket 3.7 18:25:40 10° NNW 18:30:48 74° WSW 18:35:54 10° SSE
MOS 1 4.3 18:27:46 10° SSE 18:33:26 74° ENE 18:39:08 10° NNW
Cosmos 2237 Rocket 2.6 18:28:46 10° NNW 18:34:27 67° WSW 18:40:05 10° SSE
Cosmos 1441 Rocket 4.2 18:32:51 10° SSW 18:36:32 50° WNW 18:40:12 10° N
USA 186 2.2 18:33:17 10° SE 18:36:34 45° ENE 18:39:50 10° N
Cosmos 1437 Rocket 3.2 18:33:16 10° N 18:36:52 38° ENE 18:39:44 14° SE
Cosmos 2333 Rocket 4.3 18:32:19 10° NW 18:37:06 28° WSW 18:41:53 10° SSW
ISS -3.3 18:35:27 10° SW 18:38:38 44° SSE 18:40:32 21° E
Cosmos 2056 Rocket 3.6 18:33:20 10° S 18:38:39 60° ESE 18:43:58 10° NNE
Cosmos 1939 Rocket 3.4 18:35:50 10° S 18:39:38 60° W 18:43:30 10° NNW
ERBS 2.5 18:37:22 10° WNW 18:40:45 68° SW 18:43:05 18° SE
Cosmos 1140 Rocket 3.5 18:38:50 10° NNW 18:44:03 83° WSW 18:49:11 10° SSE
Cosmos 1626 Rocket 4.2 18:40:38 10° N 18:44:35 33° ENE 18:47:01 19° SE
Cosmos 1980 4.5 18:39:19 10° NW 18:44:49 53° WSW 18:50:16 10° S
SAR-Lupe-2 3.7 18:41:26 10° NNE 18:44:58 51° ESE 18:48:26 10° S
Meteor 1-15 Rocket 4.3 18:39:49 10° S 18:45:36 73° E 18:51:31 10° NNE
Meteor 2-17 Rocket 4.4 18:41:54 10° N 18:48:01 81° ENE 18:54:05 10° SSE
Meteor 1-24 Rocket 4.0 18:43:05 10° N 18:48:46 52° ENE 18:54:23 11° SSE
Cosmos 1624 Rocket 3.9 18:44:30 10° SSW 18:49:41 75° ESE 18:54:53 10° NNE
Cosmos 1741 Rocket 4.5 18:47:58 10° NNW 18:53:06 44° ENE 18:56:13 22° ESE
Okean 1 Rocket 4.3 18:50:21 10° SSW 18:54:31 44° WNW 18:58:45 10° N
Cosmos 1954 Rocket 4.0 18:49:26 10° NNW 18:54:42 88° WSW 18:59:53 10° SSE
Cosmos 1805 3.6 18:54:28 10° SSE 18:58:06 39° E 19:01:46 10° NNE
EO 1 Delta rocket 4.4 18:55:51 10° S 19:02:01 79° W 19:07:02 10° NNW
Cosmos 1603 4.5 18:58:30 10° NNW 19:03:43 36° NE 19:06:20 24° E
Cosmos 1602 Rocket 3.9 19:02:56 10° N 19:07:08 44° ENE 19:08:45 30° SE
Cosmos 2341 Rocket 4.4 19:01:02 10° NNW 19:07:13 65° W 19:13:20 10° S
KORONAS-FOTON 3.7 19:03:32 10° N 19:07:18 63° ENE 19:09:08 28° SSE
Cosmos 2181 Rocket 4.0 19:01:32 10° S 19:07:49 80° E 19:14:14 10° NNE
Cosmos 1626 3.5 19:04:52 10° NNE 19:07:34 23° ENE 19:07:34 23° ENE
SL-16 R/B 2.2 19:02:34 10° NNW 19:08:18 87° WSW 19:12:43 17° SSE
GEOS 3 Rocket 3.9 19:05:54 16° SSE 19:09:56 65° SW 19:15:03 10° NW
Resurs 1-3 3.8 19:08:40 28° SE 19:10:40 51° ENE 19:14:57 10° N
Lacrosse 5 3.7 19:07:10 10° S 19:08:27 15° SSE 19:08:27 15° SSE
Meteor 1-4 Rocket 4.0 19:10:14 10° NNW 19:13:31 37° W 19:16:45 10° SSW
Cosmos 864 Rocket 4.4 19:09:34 10° N 19:15:51 84° E 19:22:09 10° S
Cosmos 2366 rocket 4.0 19:10:32 10° N 19:16:57 89° E 19:23:19 10° S
Cosmos 2218 Rocket 4.1 19:12:52 10° N 19:19:17 84° W 19:25:34 10° S
Cosmos 1733 3.7 19:23:18 40° ENE 19:23:18 40° ENE 19:26:26 10° NNE
Transit 2A Rocket 4.5 19:19:26 10° NW 19:23:53 82° SW 19:25:33 37° SSE
Cosmos 1821 Rocket 4.3 19:18:11 10° N 19:24:04 44° ENE 19:26:17 32° ESE
SPOT 3 Rocket 3.8 19:19:24 10° S 19:24:32 71° WSW 19:29:43 10° NNW
SL-8 Rocket 4.3 19:18:26 10° NNW 19:24:35 67° W 19:30:39 10° S
ARGOS 3.1 19:20:36 18° SSE 19:24:40 86° ENE 19:30:06 10° NNW
RESURS DK-1 2.2 19:21:05 10° NNW 19:25:15 76° ENE 19:26:21 47° SE
Cosmos 2082 3.6 19:19:34 10° SSW 19:25:16 72° ESE 19:30:59 10° NNE
Meteor 2-5 Rocket 4.2 19:21:38 10° NNW 19:27:26 65° W 19:33:17 10° S
Resurs 01 Rocket 1.7 19:26:29 42° SE 19:27:44 58° ENE 19:32:08 10° N
Cosmos 1452 Rocket 3.4 19:27:30 10° S 19:32:41 65° ESE 19:37:54 10° NNE
CZ-2C R/B 3.1 19:30:52 32° SE 19:33:24 69° ENE 19:39:02 10° N
Meteor 1-22 Rocket 4.3 19:27:21 10° S 19:33:26 76° E 19:39:32 10° NNE
MetOp-A 4.0 19:34:27 34° SSE 19:36:52 75° ENE 19:42:15 10° NNW
CZ-2C R/B 4.1 19:33:10 10° N 19:37:35 62° WNW 19:41:56 10° SSW
Cosmos 2227 Rocket 2.6 19:33:36 10° SW 19:39:13 66° WNW 19:44:55 10° NNE
Cosmos 2084 Rocket 4.0 19:35:13 10° WSW 19:39:39 60° NW 19:43:56 11° NE
SL-14 R/B 3.2 19:36:53 10° N 19:40:46 63° ENE 19:40:46 63° ENE
SJ-6B 4.3 19:41:09 12° SSW 19:44:37 37° W 19:48:25 10° NNW
Cosmos 1766 3.8 19:44:01 10° SSW 19:47:53 57° WNW 19:51:45 10° N
ADEOS Rocket 3.5 19:41:20 10° NNE 19:48:48 82° ESE 19:56:37 10° SSW
Meteor 2-12 Rocket 4.4 19:42:54 10° N 19:48:59 64° ENE 19:50:51 44° SE
Cosmos 2297 Rocket 2.9 19:43:45 10° SW 19:49:17 55° NW 19:54:52 10° NNE
CZ-4C R/B 3.9 19:47:19 10° NW 19:53:07 33° NNE 19:56:55 21° ENE
H-2A R/B 2.6 19:49:53 19° S 19:53:17 53° W 19:58:18 10° NNW
Cosmos 2263 Rocket 4.5 20:01:43 10° NE 20:01:43 10° NE 20:01:47 10° NE
SL-8 R/B 4.1 19:54:49 10° W 19:59:26 48° SSW 19:59:31 48° SSW
SL-08 RB Rocket 4.1 19:58:56 38° SSW 20:00:34 61° W 20:05:13 10° NNW
Cosmos 1850 Rocket 4.4 19:58:04 10° NNW 20:03:09 57° WSW 20:04:53 38° SSW
Cosmos 1943 3.1 20:01:31 10° NNW 20:07:13 67° ENE 20:07:51 61° E
Lacrosse 5 rocket 1.9 20:04:45 10° WSW 20:08:05 51° NW 20:08:05 51° NW
USA 234 3.9 20:05:27 22° ENE 20:09:39 52° N 20:15:59 10° WNW
BREEZE M DEB (TANK) 3.0 20:10:22 10° W 20:12:30 51° WSW 20:12:30 51° WSW
SPOT 5 4.0 20:14:48 33° NE 20:14:48 33° NE 20:18:37 10° N
ISS -1.6 20:11:57 10° W 20:13:26 24° W 20:13:26 24° W
Cosmos 1953 Rocket 4.3 20:11:45 10° N 20:15:05 45° NNE 20:15:05 45° NNE
Cosmos 1934 Rocket 3.8 20:13:31 10° N 20:19:40 71° ENE 20:20:14 67° ESE
ERS-1 Rocket 3.5 20:20:57 45° NE 20:20:57 45° NE 20:25:03 10° N
Terra 3.3 20:25:43 26° NNE 20:25:43 26° NNE 20:28:28 10° N
Cosmos 1825 Rocket 4.2 20:25:36 10° NNW 20:29:02 53° NW 20:29:02 53° NW
Meteor 1-21 Rocket 4.4 20:29:01 10° NNW 20:34:56 75° W 20:35:37 67° SSW
USA 245 4.2 20:36:02 86° SSW 20:36:10 88° WSW 20:41:32 10° NNW
Spot 2 Rocket 3.8 20:37:40 58° WSW 20:37:47 58° WSW 20:42:46 10° NNW
Cosmos 1626 4.2 20:39:54 10° NNW 20:42:09 26° WNW 20:42:09 26° WNW
CZ-2C R/B 3.0 20:39:07 10° NNE 20:43:38 59° NNE 20:43:38 59° NNE
Cosmos 1241 Rocket 4.3 20:40:10 10° NW 20:46:25 81° NE 20:46:25 81° NE
Cosmos 1603 4.2 20:42:34 10° NW 20:48:05 52° WSW 20:48:13 52° WSW
SPOT 1/Viking Rocket 4.0 20:54:02 58° NNW 20:54:02 58° NNW 20:58:09 10° NNW
Cosmos 2285 Rocket 4.1 20:57:23 10° NNW 21:03:17 70° NNE 21:03:17 70° NNE
Resurs 01 Rocket 3.9 21:04:04 18° W 21:04:36 19° W 21:07:46 10° NW
Cosmos 1605 Rocket 4.1 21:00:49 10° NNW 21:06:49 77° NW 21:06:49 77° NW
Cosmos 2082 Rocket 4.3 21:17:37 10° N 21:21:21 17° NNE 21:21:51 17° NE
Cosmos 2263 Rocket 3.7 21:43:23 30° NNE 21:43:23 30° NNE 21:46:18 10° NNE
CZ-4C R/B 3.0 21:35:54 10° NW 21:42:04 66° N 21:42:04 66° N
USA 234 3.6 21:52:49 59° N 21:52:49 59° N 21:58:40 10° WNW
Cosmos 1833 Rocket 4.4 21:48:07 10° NNW 21:51:35 25° NNE 21:51:35 25° NNE
Terra 4.1 22:04:36 22° NW 22:04:36 22° NW 22:06:27 10° NNW
Cosmos 2082 Rocket 4.1 23:01:05 10° NNW 23:03:40 26° NNW 23:03:40 26° NNW
Cosmos 2263 Rocket 4.5 23:25:03 18° NW 23:25:47 18° NNW 23:29:38 10° N
SL-16 R/B 4.3 23:28:50 24° NE 23:28:50 24° NE 23:33:34 10° N
CZ-4C R/B 4.5 23:24:40 10° NW 23:27:14 23° WNW 23:27:14 23° WNW
Cosmos 2278 Rocket 4.1 23:54:10 25° NNE 23:54:10 25° NNE 23:56:27 10° NNE
